Location: Unspecified
(42.7170°S, 0.0000°E)
Time: 11:22:03
(UTC+00:00)

N. Korean satellite - Pass Details

Date: 23 May 2019
Orbit: 455 x 510 km, 97.2° (Epoch: 19 June)

Event Time Altitude Azimuth Distance (km) Brightness Sun altitude
Rises 04:12:36 0° 55° (NE) 2,483 10.9 -32.7°
Reaches altitude 10° 04:15:19 10° 79° (E) 1,623 10.0 -32.2°
Enters shadow 04:17:07 15° 110° (ESE) 1,371 9.5 -31.8°
